Regional Weather Roundup
Issued by NWS

Home | Current Version | Previous Version | Text Only | Print | Product List | Glossary On
Versions: 1 2 3 4 5 6 7 8 9 10 11 12 13 14 15 16 17 18 19 20 21 22 23 24 25 26 27 28 29 30 31 32 33 34 35 36 37 38 39 40 41 42 43 44 45 46 47 48 49 50
000
ASUS45 KPSR 281310
RWRAZ

ARIZONA REGIONAL HOURLY WEATHER ROUNDUP
NATIONAL WEATHER SERVICE PHOENIX AZ
600 AM MST THU AUG 28 2014

NOTE: FAIR INDICATES FEW OR NO CLOUDS BELOW 12,000 FEET WITH NO
SIGNIFICANT WEATHER AND/OR OBSTRUCTIONS TO VISIBILITY.

AZZ001>003-036-281400-
NORTHWEST ARIZONA

CITY           SKY/WX    TMP DP  RH WIND       PRES   REMARKS
BULLHEAD CITY  CLEAR     79  45  29 CALM      29.95R
KINGMAN        CLEAR     60  42  51 SW3       30.14R
$$

AZZ004>008-015-016-018-281400-
NORTH CENTRAL ARIZONA

CITY           SKY/WX    TMP DP  RH WIND       PRES   REMARKS
GRAND CANYON   CLEAR     41  39  93 NE3       30.36
WILLIAMS       CLEAR     46  43  87 SE8       30.41S
PRESCOTT       CLEAR     55  48  77 SW3       30.25R
FLAGSTAFF      CLEAR     44  42  93 CALM      30.37R
PAYSON         CLEAR     63  50  63 CALM      30.24S
PAGE           CLEAR     63  46  54 CALM      30.21R
$$

AZZ009>014-017-281400-
NORTHEAST ARIZONA

CITY           SKY/WX    TMP DP  RH WIND       PRES   REMARKS
WINSLOW        CLEAR     55  52  89 CALM      30.25R
SAINT JOHNS    CLEAR     56  52  86 S7        30.27R
SHOW LOW       CLEAR     50  46  87 CALM      30.33R
$$

AZZ023-281400-
GREATER PHOENIX AREA

CITY           SKY/WX    TMP DP  RH WIND       PRES   REMARKS
PHOENIX        PTCLDY    84  62  47 SW3       29.92S
BUCKEYE          N/A     81  57  44 NE6       29.94R
GLENDALE       PTCLDY    82  59  44 NW6       29.95
LUKE AFB       NOT AVBL
DEER VALLEY    CLEAR     79  59  50 N3        29.95R
SCOTTSDALE     CLEAR     81  60  48 CALM      29.96R
MESA-GATEWAY   PTCLDY    81  59  47 VRB3      29.97R
CHANDLER       PTCLDY    82  61  47 N7        29.94
$$

AZZ027-028-281400-
SOUTHWEST MARICOPA COUNTY AND PINAL COUNTY

CITY           SKY/WX    TMP DP  RH WIND       PRES   REMARKS
CASA GRANDE    CLEAR     75  54  46 CALM      29.96R
$$

AZZ503-504-507>509-281400-
SOUTHEAST ARIZONA

CITY           SKY/WX    TMP DP  RH WIND       PRES   REMARKS
TUCSON         CLEAR     76  58  53 S6        30.06R
DAVIS-MONTHAN  CLEAR     71  59  66 SE5       30.05R
RYAN FIELD       N/A     72  63  73 E3        30.05
NOGALES        CLEAR     61  57  87 E3        30.13R
SIERRA VISTA   CLEAR     66  55  68 SW7       30.19R
DOUGLAS        CLEAR     63  58  83 N8        30.15R
SAFFORD        CLEAR     68  56  65 SW5       30.07R
$$

AZZ020-021-025-026-031-281400-
SOUTHWEST ARIZONA

CITY           SKY/WX    TMP DP  RH WIND       PRES   REMARKS
YUMA           CLEAR     85  54  34 W6        29.87S
$$

CAZ031-033-041-043-047-048-061-281400-
SOUTHERN CALIFORNIA

CITY           SKY/WX    TMP DP  RH WIND       PRES   REMARKS
DOWNTOWN L.A.  CLEAR     69  56  62 CALM      29.98S
L.A. AIRPORT   CLEAR     70  55  59 CALM      29.99S
SAN DIEGO      CLEAR     73  62  68 CALM      30.00R
BURBANK        CLEAR     70  46  42 CALM      30.00S
ONTARIO        CLEAR     72  52  49 N3        30.02R
RIVERSIDE      CLEAR     67  54  63 CALM      30.02R
PALM SPRINGS   CLEAR     81  56  42 SW3       29.93R
IMPERIAL       CLEAR     79  54  41 W8        29.86S
BLYTHE         CLEAR     82  54  37 CALM      29.89R
NEEDLES        CLEAR     79  44  28 W8        29.94S
$$

NVZ020-UTZ003-281400-
SOUTHERN NEVADA-UTAH

CITY           SKY/WX    TMP DP  RH WIND       PRES   REMARKS
LAS VEGAS      CLEAR     77  37  23 SW8       30.01R
SALT LAKE CITY PTCLDY    59  52  77 SE7       30.21S
$$

NMZ009-TXZ055-281400-
NEW MEXICO-WEST TEXAS

CITY           SKY/WX    TMP DP  RH WIND       PRES   REMARKS
ALBUQUERQUE    CLEAR     59  47  64 W5        30.23R
EL PASO        PTCLDY    70  59  68 CALM      30.10R
$$


........................KEY........................
SKY/WX - SKY CONDITION/WEATHER
TMP    - TEMPERATURE IN FAHRENHEIT
DP     - DEW POINT IN FAHRENHEIT
RH     - RELATIVE HUMIDITY IN PERCENT
WIND   - DIRECTION AND SPEED IN MILES PER HOUR (MPH)
VRB    - VARIABLE WIND DIRECTION
PRES   - MEAN SEA LEVEL PRESSURE IN INCHES OF MERCURY
         F - FALLING PRESSURE   R - RISING PRESSURE
         S - STEADY PRESSURE
VSB    - VISIBILITY IN MILES
HX     - HEAT INDEX IN FAHRENHEIT
WCI    - WIND CHILL INDEX IN FAHRENHEIT
TC     - TEMPERATURE IN CELSIUS WHICH IS ALSO KNOWN AS
         TEMPERATURE IN CENTIGRADE
AFB    - AIR FORCE BASE
         LUKE AFB IS LUKE AIR FORCE BASE
         DAVIS-MONTHAN IS DAVIS-MONTHAN AIR FORCE BASE
NAS    - NAVAL AIR STATION
         EL CENTRO NAS IS EL CENTRO NAVAL AIR STATION
N/A    - NOT AVAILABLE



USA.gov is the U.S. government's official web portal to all federal, state and local government web resources and services.